Location: Sungai Laei
(2.6000°N, 113.7167°E)
Time: 12:58:59
(UTC+00:00)

Cosmos 1023 Rocket - Visible Passes

Search period start: 26 September 2022 00:00
Search period end: 06 October 2022 00:00
Orbit: 736 x 771 km, 74.1° (Epoch: 25 September)

Date Brightness Start Highest point End Pass type
(mag) Time Alt. Az. Time Alt. Az. Time Alt. Az.
26 Sep 4.7 21:34:20 10° NNW 21:39:21 49° WSW 21:44:26 10° S visible
27 Sep 4.7 20:52:56 10° N 20:58:09 71° ENE 21:03:23 10° SSE visible
28 Sep 6.3 20:12:23 10° NNE 20:16:56 30° ENE 20:21:30 10° SE visible
29 Sep 7.4 19:33:20 10° NE 19:35:41 13° ENE 19:38:03 10° ESE visible
29 Sep 5.0 21:12:25 10° NW 21:17:10 35° WSW 21:21:58 10° SSW visible
30 Sep 4.3 20:34:39 52° NNW 20:35:57 84° WSW 20:41:14 10° S visible
01 Oct 6.0 19:56:15 33° ESE 19:56:15 33° ESE 19:59:41 10° SSE visible
01 Oct 6.3 21:36:21 11° WSW 21:36:21 11° WSW 21:37:29 10° WSW visible
02 Oct 6.1 20:57:27 18° SW 20:57:27 18° SW 20:59:19 10° SSW visible
03 Oct 6.7 20:18:15 14° S 20:18:15 14° S 20:18:57 10° S visible
